[[{"header":{"parameterUnit":"m.s-1","parameterCategory":1,"la1":30.2991,"la2":30.254,"lo1":-89.0895,"lo2":-89.0444,"dy":0.0017,"dx":0.0017,"nx":28,"ny":28,"refTime":"2024-03-13T03:00:00:Z","depth":0,"parameterNumber":2,"parameterNumberName":"U-component_of_WINDS"},"data":[0,0,0,0,0,0,0,0,0,0,0,0,0,0,0,0,0,0,0,0,0,0,0,0,0,0,0,0,0,0,0,0,0,0,0,0,0,0,0,0,0,0,0,0,0,0,0,0,0,0,0,0,0,0,0,0,0,0,-5.2726,-5.2727,0,-5.2841,-5.2842,-5.2843,-5.2804,-5.2802,-5.2799,-5.2797,-5.2913,-5.2918,-5.2924,0,0,0,0,0,0,0,0,0,0,0,0,0,-5.2474,-5.2478,-5.2726,-5.2727,-5.2729,-5.284,-5.2842,-5.2844,-5.2805,-5.2802,-5.2799,-5.2796,-5.2911,-5.2918,-5.2924,0,0,0,0,0,0,0,0,0,0,0,0,0,-5.2585,-5.248,-5.2726,-5.2723,-5.2724,-5.284,-5.2842,-5.2844,-5.2805,-5.2802,-5.2798,-5.2794,-5.2909,-5.2917,-5.2925,-5.305,0,0,-5.295,-5.2953,0,0,0,0,0,0,0,0,-5.2579,-5.2594,-5.2722,-5.2723,-5.2725,-5.2804,-5.2795,-5.2913,-5.2806,-5.2774,-5.2797,-5.2792,-5.288,-5.289,-5.292,-5.3056,-5.3061,-5.2951,-5.2955,-5.2959,-5.2961,0,0,0,0,0,0,0,-5.2571,-5.2589,-5.2771,-5.2724,-5.2726,-5.2716,-5.2728,-5.2818,-5.2847,-5.2777,-5.2774,-5.2788,-5.288,-5.2912,-5.2922,-5.3062,-5.295,-5.2958,-5.2963,-5.2966,-5.3307,-5.3311,0,0,0,0,0,0,-5.2563,-5.2583,-5.2768,-5.2775,-5.2641,-5.2724,-5.2737,-5.2782,-5.2846,-5.2852,-5.2792,-5.2786,-5.29,-5.2913,-5.2926,-5.3076,-5.2959,-5.2967,-5.2971,-5.3303,-5.3308,-5.3313,0,0,0,0,0,0,-5.2558,-5.258,-5.2763,-5.2678,-5.2701,-5.2732,-5.2784,-5.2787,-5.2819,-5.2857,-5.2862,-5.2819,-5.2897,-5.2915,-5.302,-5.3079,-5.297,-5.2978,-5.3298,-5.3305,-5.331,-5.3377,0,0,0,0,0,0,-5.255,-5.2578,-5.2626,-5.268,-5.2706,-5.2855,-5.2787,-5.2792,-5.2833,-5.2827,-5.2884,-5.289,-5.2896,-5.3008,-5.3028,-5.3088,-5.2984,-5.3293,-5.3301,-5.3308,-5.3369,-5.3384,-5.3397,0,0,0,0,0,-5.2542,-5.2639,-5.2628,-5.2651,-5.2766,-5.2858,-5.2873,-5.2878,-5.2838,-5.2886,-5.2911,-5.2888,-5.3071,-5.3019,-5.3041,-5.3105,-5.3289,-5.3299,-5.3308,-5.3363,-5.3381,-5.3397,0,0,0,0,0,0,-5.259,-5.2646,-5.2634,-5.2753,-5.2801,-5.2851,-5.2912,-5.2898,-5.2958,-5.295,-5.2954,-5.2968,-5.3075,-5.3101,-5.3043,-5.323,-5.3174,-5.3188,-5.3208,-5.3226,-5.324,-5.3229,-5.2991,0,0,0,0,0,-5.2615,-5.2686,-5.2731,-5.2831,-5.2856,-5.288,-5.2921,-5.2921,-5.2971,-5.2991,-5.3023,-5.3072,-5.3141,-5.3186,-5.3251,-5.3375,-5.3385,-5.343,-5.3444,-5.3455,-5.3466,-5.3533,-5.3552,-5.3344,-5.3343,-5.3343,0,0,-5.2666,-5.2706,-5.275,-5.2842,-5.2879,-5.2952,-5.2897,-5.2976,-5.303,-5.3003,-5.3103,-5.313,-5.3185,-5.33,-5.3352,-5.3324,-5.3527,-5.3467,-5.3476,-5.3481,-5.3544,-5.3564,-5.3582,-5.335,-5.3349,-5.3348,0,0,-5.2796,-5.2834,-5.2921,-5.296,-5.3018,-5.3034,-5.3055,-5.3109,-5.3125,-5.3226,-5.3208,-5.3272,-5.339,-5.343,-5.3466,-5.3614,-5.3595,-5.3636,-5.3708,-5.3773,-5.3789,-5.3803,-5.3854,-5.3872,-5.3648,-5.3648,-5.3648,0,-5.2851,-5.296,-5.2967,-5.3048,-5.3088,-5.307,-5.3157,-5.3195,-5.3272,-5.33,-5.3269,-5.3417,-5.3454,-5.3577,-5.3613,-5.3644,-5.3667,-5.3627,-5.3786,-5.3801,-5.3814,-5.3863,-5.3882,-5.3652,-5.3652,-5.3651,-5.3651,0,-5.3025,-5.3101,-5.3164,-5.3238,-5.3287,-5.3371,-5.3391,-5.344,-5.3438,-5.3457,-5.3561,-5.3604,-5.3677,-5.3708,-5.3706,-5.3831,-5.3812,-5.3785,-5.3727,-5.3838,-5.3884,-5.3902,-5.3658,-5.3657,-5.3656,-5.3654,0,0,-5.3183,-5.3263,-5.3286,-5.3319,-5.3384,-5.3442,-5.3527,-5.3599,-5.364,-5.3695,-5.3764,-5.3866,-5.3841,-5.3881,-5.3885,-5.3942,-5.4055,-5.3907,-5.3908,-5.393,-5.4193,-5.4211,-5.4232,-5.4044,-5.4048,-5.4051,-5.4188,0,-5.3315,-5.3462,-5.3472,-5.3605,-5.3674,-5.3659,-5.3732,-5.378,-5.3801,-5.3864,-5.3888,-5.3959,-5.3922,-5.3946,-5.4003,-5.4029,-5.4107,-5.402,-5.4107,-5.411,-5.4089,-5.4256,-5.4275,-5.4402,-5.4206,-5.4209,-5.4211,0,-5.3487,-5.3548,-5.3687,-5.3742,-5.3772,-5.3837,-5.3905,-5.3966,-5.402,-5.4031,-5.4079,-5.4074,-5.4161,-5.4104,-5.4223,-5.4163,-5.42,-5.4219,-5.4224,-5.4229,-5.4164,-5.4262,-5.4443,-5.446,-5.424,-5.4237,-5.4235,0,-5.3585,-5.3702,-5.38,-5.383,-5.3898,-5.3944,-5.3974,-5.4025,-5.4068,-5.4128,-5.4156,-5.4226,-5.4263,-5.4317,-5.4331,-5.4289,-5.4449,-5.4394,-5.4459,-5.4459,-5.4489,-5.4486,-5.4674,-5.452,-5.452,-5.452,-5.4519,0,-5.3729,-5.3814,-5.3845,-5.3904,-5.4,-5.4013,-5.4107,-5.4134,-5.418,-5.4245,-5.4238,-5.4299,-5.4317,-5.4382,-5.4395,-5.4489,-5.4507,-5.4518,-5.4519,-5.4516,-5.4514,-5.4537,-5.4527,-5.4525,-5.4524,-5.4523,-5.4522,0,-5.3851,-5.3876,-5.3981,-5.4038,-5.4055,-5.4122,-5.417,-5.4228,-5.425,-5.4333,-5.4353,-5.4387,-5.4463,-5.4485,-5.4576,-5.4585,-5.4695,-5.4691,-5.4676,-5.4675,-5.4738,-5.473,-5.4944,-5.4972,-5.4803,-5.4805,-5.4806,0,-5.3939,-5.4004,-5.4069,-5.4112,-5.4144,-5.4215,-5.4259,-5.4276,-5.4322,-5.439,-5.444,-5.4515,-5.4576,-5.4698,-5.473,-5.48,-5.4795,-5.4866,-5.4805,-5.48,-5.4792,-5.4786,-5.4792,-5.4875,-5.4877,-5.4878,-5.488,0,-5.4091,-5.4101,-5.4165,-5.4235,-5.4289,-5.4345,-5.4398,-5.4434,-5.4458,-5.4512,-5.4589,-5.4637,-5.4731,-5.4805,-5.4876,-5.4907,-5.4897,-5.4899,-5.4917,-5.4912,-5.49,-5.4904,-5.4703,-5.4893,-5.4892,-5.4891,-5.489,-5.4889,-5.4196,-5.4253,-5.4308,-5.438,-5.4423,-5.4474,-5.4531,-5.4561,-5.4627,-5.4704,-5.4711,-5.4795,-5.4849,-5.4944,-5.498,-5.5045,-5.5024,-5.5051,-5.5058,-5.5063,-5.5066,-5.4894,-5.5059,-5.5059,-5.5058,-5.5058,-5.5058,0,-5.4345,-5.438,-5.4447,-5.4523,-5.458,-5.4569,-5.4628,-5.4677,-5.4751,-5.4803,-5.4863,-5.4953,-5.5026,-5.5066,-5.5139,-5.5184,-5.5181,-5.5202,-5.5196,-5.5203,-5.5083,-5.5058,-5.5203,-5.5203,-5.5203,-5.5203,-5.5203,-5.5203,-5.4428,-5.4524,-5.4541,-5.4658,-5.4693,-5.4775,-5.481,-5.4857,-5.4898,-5.4999,-5.506,-5.5086,-5.5134,-5.521,-5.5276,-5.5287,-5.5312,-5.5335,-5.5342,-5.5227,-5.5212,-5.5198,-5.5174,-5.5341,-5.5342,-5.5457,-5.5458,-5.5459]},{"header":{"parameterUnit":"m.s-1","parameterCategory":1,"la1":30.2991,"la2":30.254,"lo1":-89.0895,"lo2":-89.0444,"dy":0.0017,"dx":0.0017,"nx":28,"ny":28,"refTime":"2024-03-13T03:00:00:Z","depth":0,"parameterNumber":3,"parameterNumberName":"V-component_of_WINDS"},"data":[0,0,0,0,0,0,0,0,0,0,0,0,0,0,0,0,0,0,0,0,0,0,0,0,0,0,0,0,0,0,0,0,0,0,0,0,0,0,0,0,0,0,0,0,0,0,0,0,0,0,0,0,0,0,0,0,0,0,1.7564,1.7565,0,1.7627,1.7628,1.7629,1.7656,1.7656,1.7655,1.7655,1.7716,1.7718,1.772,0,0,0,0,0,0,0,0,0,0,0,0,0,1.7465,1.7467,1.7564,1.7565,1.7565,1.7627,1.7628,1.7629,1.7656,1.7656,1.7655,1.7655,1.7716,1.7718,1.772,0,0,0,0,0,0,0,0,0,0,0,0,0,1.7516,1.7467,1.7564,1.7586,1.7589,1.7627,1.7628,1.7629,1.7656,1.7656,1.7655,1.7655,1.7715,1.7717,1.772,1.7739,0,0,1.7728,1.7729,0,0,0,0,0,0,0,0,1.7513,1.752,1.7582,1.7585,1.7588,1.7633,1.7616,1.7666,1.7656,1.763,1.7655,1.7655,1.7688,1.7693,1.7705,1.7742,1.7744,1.7728,1.773,1.7731,1.7731,0,0,0,0,0,0,0,1.751,1.7517,1.7589,1.7583,1.7587,1.7593,1.76,1.7625,1.7659,1.7632,1.7635,1.7642,1.769,1.7703,1.7707,1.7745,1.7728,1.773,1.7732,1.7733,1.7804,1.7804,0,0,0,0,0,0,1.7503,1.7514,1.7587,1.7591,1.755,1.7595,1.7603,1.7619,1.7659,1.7665,1.7642,1.7643,1.7698,1.7704,1.7709,1.7736,1.7731,1.7733,1.7735,1.7803,1.7804,1.7804,0,0,0,0,0,0,1.75,1.7509,1.7584,1.7553,1.7563,1.7597,1.7615,1.762,1.7633,1.7666,1.7672,1.7649,1.7699,1.7706,1.7732,1.7738,1.7734,1.7737,1.7803,1.7803,1.7804,1.7788,0,0,0,0,0,0,1.7498,1.7508,1.7515,1.7553,1.7565,1.7606,1.7615,1.7622,1.7638,1.764,1.7674,1.768,1.7699,1.7728,1.7735,1.7742,1.7739,1.7802,1.7803,1.7804,1.7788,1.7788,1.7788,0,0,0,0,0,1.7494,1.7507,1.7516,1.7524,1.7575,1.7607,1.7613,1.7636,1.7638,1.7646,1.7668,1.7679,1.7737,1.7731,1.7738,1.7746,1.7802,1.7803,1.7804,1.7788,1.7788,1.7788,0,0,0,0,0,0,1.7466,1.7512,1.7522,1.7548,1.7573,1.7611,1.7621,1.7634,1.7659,1.7659,1.7686,1.7693,1.7718,1.7735,1.7727,1.7768,1.777,1.7773,1.7756,1.7756,1.7756,1.7751,1.7741,0,0,0,0,0,1.7464,1.7487,1.7525,1.7544,1.7556,1.7587,1.7601,1.7617,1.7644,1.7655,1.7679,1.7704,1.7728,1.7743,1.7767,1.7791,1.78,1.7801,1.78,1.78,1.7802,1.7818,1.782,1.7806,1.7806,1.7806,0,0,1.7457,1.7485,1.7497,1.7539,1.7561,1.7584,1.7595,1.7618,1.7636,1.7658,1.7685,1.7704,1.7734,1.776,1.7773,1.7775,1.7808,1.7801,1.7801,1.7802,1.7819,1.782,1.7821,1.7807,1.7807,1.7807,0,0,1.7458,1.7481,1.7501,1.7523,1.7557,1.7578,1.7583,1.762,1.7634,1.7663,1.768,1.7701,1.7742,1.7763,1.778,1.7793,1.7805,1.78,1.7799,1.7815,1.7816,1.7817,1.7823,1.7825,1.7802,1.7802,1.7802,0,1.7445,1.7482,1.7508,1.7532,1.7551,1.7574,1.7595,1.7615,1.7654,1.7666,1.7669,1.7723,1.7744,1.7777,1.7781,1.7793,1.78,1.7796,1.7814,1.7815,1.7817,1.7823,1.7825,1.7801,1.7801,1.7801,1.7801,0,1.7466,1.7491,1.7503,1.7543,1.7563,1.7584,1.7615,1.7632,1.7647,1.7668,1.7698,1.7726,1.7757,1.7766,1.7779,1.7802,1.7803,1.7809,1.7812,1.7817,1.7823,1.7826,1.78,1.78,1.7801,1.7801,0,0,1.7447,1.7506,1.751,1.753,1.7571,1.7591,1.7615,1.7647,1.7662,1.7689,1.771,1.7746,1.7754,1.7773,1.7789,1.7803,1.7815,1.7809,1.781,1.781,1.7843,1.7839,1.7841,1.7823,1.7824,1.7824,1.7841,0,1.7454,1.7499,1.7526,1.756,1.7585,1.761,1.7631,1.7658,1.768,1.7703,1.7726,1.7752,1.7759,1.7771,1.7786,1.781,1.7822,1.7809,1.7843,1.7844,1.7835,1.7844,1.7838,1.7853,1.7844,1.7844,1.7845,0,1.7467,1.7497,1.7534,1.7576,1.7588,1.7606,1.764,1.7663,1.7696,1.771,1.7733,1.7751,1.7778,1.778,1.7818,1.7809,1.7824,1.7839,1.784,1.7844,1.7844,1.7848,1.7857,1.786,1.7849,1.7848,1.7848,0,1.7452,1.7501,1.7531,1.7547,1.7596,1.7609,1.763,1.7663,1.7682,1.7712,1.7725,1.7757,1.7774,1.7798,1.7824,1.7823,1.7861,1.7864,1.7874,1.7873,1.7879,1.7879,1.7892,1.7889,1.7889,1.7889,1.7889,0,1.7457,1.7479,1.7525,1.7543,1.757,1.7601,1.7626,1.7648,1.7678,1.7702,1.7725,1.7746,1.7779,1.7805,1.7826,1.7855,1.7862,1.7875,1.788,1.7873,1.7872,1.7883,1.7883,1.789,1.789,1.7889,1.7889,0,1.7443,1.7475,1.751,1.7555,1.7567,1.7585,1.7623,1.7642,1.7666,1.7695,1.7704,1.7741,1.7773,1.7802,1.7843,1.7857,1.7887,1.7894,1.7877,1.788,1.7888,1.7888,1.7909,1.7915,1.7908,1.7908,1.7908,0,1.7444,1.7462,1.7511,1.753,1.7551,1.7579,1.76,1.7633,1.7653,1.7695,1.7709,1.7743,1.7771,1.7821,1.7851,1.7884,1.7891,1.7897,1.7896,1.789,1.7893,1.7892,1.7894,1.7896,1.7896,1.7896,1.7896,0,1.7443,1.7459,1.7489,1.7526,1.7551,1.758,1.7611,1.7624,1.7662,1.7685,1.7719,1.7742,1.7786,1.782,1.7857,1.7878,1.7894,1.7897,1.7901,1.7893,1.7883,1.789,1.7876,1.7895,1.7896,1.7896,1.7896,1.7896,1.7437,1.7456,1.7494,1.7528,1.7555,1.7584,1.7605,1.7633,1.7663,1.7703,1.772,1.7755,1.779,1.7842,1.7863,1.7891,1.7894,1.79,1.7901,1.7902,1.7902,1.788,1.7898,1.7898,1.7898,1.7898,1.7898,0,1.7438,1.7465,1.7496,1.754,1.7566,1.7582,1.7617,1.7639,1.767,1.7702,1.7731,1.7772,1.7806,1.784,1.7876,1.7892,1.7901,1.7901,1.79,1.7905,1.7896,1.789,1.7893,1.7893,1.7893,1.7893,1.7893,1.7893,1.7441,1.7475,1.7496,1.7543,1.757,1.7606,1.7626,1.7653,1.768,1.7725,1.7754,1.7777,1.7811,1.785,1.7883,1.7892,1.7904,1.7903,1.7914,1.7905,1.7905,1.7905,1.7899,1.7905,1.7905,1.792,1.792,1.7921]}]]